Weather History for Marysville, OH

Change the Weather History Date:

Thursday, December 5, 2013

  Actual Average (KDLZ) Record (KDLZ)
Temperature  
Mean Temperature 46 °F -  
Max Temperature 59 °F 39 °F 65 °F (1960)
Min Temperature 32 °F 25 °F 6 °F (1976)
Degree Days  
Heating Degree Days 20    
Moisture  
Dew Point 40 °F    
Average Humidity 80    
Maximum Humidity 88    
Minimum Humidity 66    
Precipitation  
Precipitation 0.01 in - - ()
Sea Level Pressure  
Sea Level Pressure 29.93 in    
Wind  
Wind Speed 11 mph (WNW)    
Max Wind Speed 16 mph    
Max Gust Speed 24 mph    
Visibility 8 miles    
Events      
Averages and records for this station are not official NWS values.
T = Trace of Precipitation, MM = Missing Value Source: NWS Daily Summary

Daily Weather History Graph

Daily Weather History Graph

Search for Another Location

Airport:

Trip Planner

Search our weather history database for the weather conditions in past years. The results will help you decide how hot, cold, wet, or windy it might be!

Date:

Astronomy

Dec. 05, 2013 Rise Set
Actual Time 7:40 AM EST 5:07 PM EST
Civil Twilight 7:10 AM EST 5:37 PM EST
Nautical Twilight 6:36 AM EST 6:11 PM EST
Astronomical Twilight 6:03 AM EST 6:44 PM EST
Moon 10:00 AM EST (12/5) 8:27 PM EST (12/5)
Length of Visible Light 10h 27m
Length of Day
9h 26m
Waxing Crescent, 10% of the Moon is Illuminated
Dec 5
Waxing Crescent
Dec 9
First Quarter
Dec 17
Full
Dec 25
Last Quarter
Jan 1
New

Hourly Weather History & Observations

Time (EST) Temp. Windchill Dew Point Humidity Pressure Visibility Wind Dir Wind Speed Gust Speed Precip Events Conditions
12:14 AM 55.8 °F - 49.8 °F 80% 29.76 in 10.0 mi SSW 15.0 mph - N/A   Scattered Clouds
12:35 AM 56.3 °F - 50.2 °F 80% 29.76 in 10.0 mi SSW 13.8 mph 21.9 mph N/A   Scattered Clouds
12:54 AM 56.3 °F - 50.4 °F 80% 29.76 in 10.0 mi SSW 15.0 mph 18.4 mph N/A   Mostly Cloudy
1:14 AM 56.3 °F - 50.7 °F 82% 29.77 in 10.0 mi SSW 11.5 mph 17.3 mph N/A   Mostly Cloudy
1:34 AM 56.7 °F - 51.1 °F 82% 29.77 in 10.0 mi SSW 12.7 mph - N/A   Overcast
1:55 AM 57.6 °F - 51.8 °F 81% 29.76 in 10.0 mi SSW 12.7 mph 17.3 mph N/A   Overcast
2:14 AM 59.0 °F - 52.5 °F 79% 29.76 in 10.0 mi SSW 16.1 mph 19.6 mph N/A   Overcast
2:34 AM 59.0 °F - 52.5 °F 79% 29.77 in 10.0 mi SSW 12.7 mph 18.4 mph N/A   Overcast
2:55 AM 59.2 °F - 52.7 °F 79% 29.78 in 10.0 mi SSW 12.7 mph 17.3 mph N/A   Overcast
3:14 AM 59.0 °F - 52.7 °F 80% 29.78 in 10.0 mi SSW 11.5 mph 17.3 mph N/A   Overcast
3:34 AM 59.0 °F - 52.9 °F 80% 29.78 in 10.0 mi SW 8.1 mph - N/A   Overcast
3:55 AM 58.5 °F - 52.7 °F 81% 29.78 in 7.0 mi SW 9.2 mph - N/A   Overcast
4:14 AM 58.5 °F - 52.9 °F 82% 29.78 in 7.0 mi SW 11.5 mph - N/A   Overcast
4:34 AM 58.6 °F - 53.1 °F 82% 29.79 in 7.0 mi SW 9.2 mph - N/A   Overcast
4:55 AM 57.9 °F - 52.7 °F 83% 29.80 in 7.0 mi SW 8.1 mph - N/A   Overcast
5:14 AM 57.4 °F - 52.7 °F 84% 29.80 in 7.0 mi SW 8.1 mph - N/A   Overcast
5:34 AM 57.4 °F - 52.7 °F 84% 29.79 in 7.0 mi SSW 6.9 mph - N/A   Overcast
5:55 AM 56.7 °F - 52.5 °F 86% 29.79 in 7.0 mi SSW 6.9 mph - N/A   Scattered Clouds
6:14 AM 56.3 °F - 52.2 °F 86% 29.79 in 5.0 mi SSW 4.6 mph - N/A   Scattered Clouds
6:34 AM 55.8 °F - 52.0 °F 87% 29.80 in 5.0 mi SSW 4.6 mph - N/A   Overcast
6:55 AM 57.4 °F - 53.6 °F 87% 29.80 in 5.0 mi SSW 6.9 mph - N/A   Overcast
7:14 AM 57.2 °F - 53.2 °F 87% 29.81 in 5.0 mi SW 5.8 mph - N/A   Overcast
7:34 AM 57.2 °F - 53.2 °F 87% 29.81 in 5.0 mi SW 5.8 mph - N/A   Overcast
7:55 AM 57.2 °F - 53.4 °F 87% 29.82 in 4.0 mi SW 8.1 mph - N/A   Mostly Cloudy
8:14 AM 57.2 °F - 53.6 °F 88% 29.83 in 4.0 mi WSW 8.1 mph - N/A   Scattered Clouds
8:34 AM 57.2 °F - 52.2 °F 83% 29.85 in 5.0 mi WNW 16.1 mph 19.6 mph N/A   Mostly Cloudy
8:55 AM 53.6 °F - 48.2 °F 82% 29.86 in 5.0 mi WNW 16.1 mph 24.2 mph N/A   Overcast
9:14 AM 52.7 °F - 47.5 °F 82% 29.88 in 5.0 mi WNW 15.0 mph 21.9 mph N/A   Overcast
9:34 AM 52.3 °F - 47.3 °F 83% 29.88 in 5.0 mi WNW 12.7 mph - N/A   Overcast
9:55 AM 52.2 °F - 46.2 °F 80% 29.89 in 5.0 mi West 16.1 mph 19.6 mph N/A   Overcast
10:14 AM 51.8 °F - 45.5 °F 79% 29.90 in 5.0 mi West 10.4 mph - N/A   Overcast
10:34 AM 51.8 °F - 44.8 °F 77% 29.90 in 5.0 mi WNW 6.9 mph - N/A   Scattered Clouds
10:55 AM 50.9 °F - 41.5 °F 70% 29.90 in 10.0 mi WNW 10.4 mph - N/A   Scattered Clouds
11:14 AM 50.2 °F - 41.9 °F 73% 29.92 in 7.0 mi NW 11.5 mph - N/A   Mostly Cloudy
11:34 AM 49.5 °F - 41.2 °F 73% 29.92 in 7.0 mi WNW 10.4 mph 17.3 mph N/A   Overcast
11:55 AM 48.0 °F - 38.5 °F 70% 29.92 in 10.0 mi NW 11.5 mph - N/A   Overcast
12:14 PM 47.5 °F - 38.3 °F 70% 29.92 in 10.0 mi NW 15.0 mph 20.7 mph N/A   Overcast
12:34 PM 47.3 °F - 37.4 °F 68% 29.93 in 10.0 mi NW 12.7 mph - N/A   Overcast
12:55 PM 45.0 °F 38.9 °F 35.4 °F 69% 29.92 in 10.0 mi WNW 12.7 mph - N/A   Overcast
1:14 PM 44.8 °F 39.0 °F 34.5 °F 67% 29.95 in 10.0 mi WNW 11.5 mph 21.9 mph N/A   Overcast
1:34 PM 43.7 °F 37.7 °F 34.0 °F 69% 29.95 in 10.0 mi WNW 11.5 mph 17.3 mph N/A   Overcast
1:54 PM 43.3 °F 36.5 °F 32.7 °F 66% 29.95 in 10.0 mi WNW 13.8 mph 18.4 mph N/A   Overcast
2:14 PM 42.8 °F 37.0 °F 32.0 °F 66% 29.97 in 10.0 mi NW 10.4 mph - N/A   Overcast
2:34 PM 41.9 °F 37.5 °F 31.5 °F 66% 29.95 in 10.0 mi NW 6.9 mph - N/A   Overcast
2:54 PM 41.4 °F 36.2 °F 31.8 °F 69% 29.94 in 10.0 mi NNW 8.1 mph - N/A   Overcast
3:14 PM 40.3 °F 34.4 °F 30.7 °F 69% 29.97 in 10.0 mi NW 9.2 mph - N/A   Overcast
3:34 PM 39.0 °F 32.8 °F 31.3 °F 74% 29.97 in 7.0 mi WNW 9.2 mph - N/A   Overcast
3:54 PM 38.7 °F 32.9 °F 31.3 °F 75% 29.99 in 10.0 mi WNW 8.1 mph - N/A   Overcast
4:14 PM 39.2 °F 35.9 °F 30.6 °F 71% 29.99 in 10.0 mi NW 4.6 mph - N/A   Overcast
4:34 PM 38.8 °F 32.6 °F 29.7 °F 70% 30.01 in 10.0 mi NW 9.2 mph - N/A   Overcast
4:54 PM 38.3 °F 31.9 °F 28.9 °F 69% 30.02 in 10.0 mi NNW 9.2 mph - N/A   Overcast
5:14 PM 38.3 °F 31.9 °F 30.0 °F 72% 30.03 in 10.0 mi NNW 9.2 mph - N/A   Overcast
5:34 PM 37.4 °F 28.2 °F 30.0 °F 75% 30.06 in 10.0 mi NW 16.1 mph 20.7 mph N/A   Overcast
5:54 PM 35.8 °F 30.1 °F 30.0 °F 80% 30.07 in 10.0 mi NNW 6.9 mph - N/A   Overcast
6:14 PM 35.6 °F 29.9 °F 30.4 °F 81% 30.08 in 10.0 mi NW 6.9 mph - N/A   Overcast
6:35 PM 34.9 °F 27.7 °F 30.0 °F 82% 30.06 in 7.0 mi NNW 9.2 mph - N/A   Overcast
6:54 PM 34.7 °F 28.8 °F 30.2 °F 84% 30.05 in 10.0 mi NNW 6.9 mph - N/A   Overcast
7:15 PM 34.3 °F 29.2 °F 30.7 °F 87% 30.05 in 7.0 mi NNW 5.8 mph - N/A   Overcast
7:34 PM 34.0 °F 28.8 °F 30.6 °F 87% 30.02 in 10.0 mi North 5.8 mph - N/A   Overcast
7:54 PM 33.8 °F 28.6 °F 30.4 °F 87% 30.03 in 10.0 mi North 5.8 mph - N/A   Overcast
8:15 PM 33.6 °F 27.5 °F 30.2 °F 87% 30.07 in 10.0 mi NNW 6.9 mph - N/A   Overcast
8:34 PM 33.3 °F 27.1 °F 29.7 °F 87% 30.08 in 7.0 mi NNW 6.9 mph - N/A   Overcast
8:54 PM 32.9 °F 25.3 °F 29.3 °F 87% 30.07 in 7.0 mi NNW 9.2 mph - N/A   Overcast
9:15 PM 32.5 °F 26.2 °F 28.9 °F 87% 30.09 in 5.0 mi NNW 6.9 mph - N/A   Overcast
9:34 PM 32.4 °F 26.0 °F 29.1 °F 88% 30.11 in 5.0 mi NNW 6.9 mph 10.4 mph 0.01 in   Overcast
9:54 PM 32.0 °F 23.0 °F 28.4 °F 87% 30.12 in 7.0 mi NNW 11.5 mph 19.6 mph 0.01 in   Overcast
10:14 PM 32.0 °F 24.8 °F 28.4 °F 87% 30.12 in 7.0 mi NNW 8.1 mph 18.4 mph N/A   Overcast
10:34 PM 32.0 °F 22.5 °F 28.0 °F 85% 30.12 in 5.0 mi NNW 12.7 mph 17.3 mph N/A   Overcast
10:54 PM 32.0 °F 25.6 °F 27.9 °F 85% 30.09 in 7.0 mi North 6.9 mph - N/A   Overcast
11:14 PM 32.0 °F 25.6 °F 27.7 °F 84% 30.15 in 10.0 mi NNW 6.9 mph - N/A   Overcast
11:17 PM 32.0 °F 24.8 °F 27.7 °F 84% 30.15 in 10.0 mi NNW 8.1 mph - N/A   Overcast
11:45 PM 32.0 °F 26.4 °F 26.6 °F 80% 30.11 in 10.0 mi North 5.8 mph - N/A   Overcast